When you browse on this site, cookies collect data to enhance your experience and personalize the content and advertising you see.
Visit our Privacy Policy to learn more. By continuing to use the site, you agree to this use of cookies and data.
  • în România
  • Lista ţărilor
  • Pe 7 zile
  • Temperatura apei
  • Hartă satelitară
  • Meteo pe hartă
  • Widget-uri
  • user-avatar
    Intrare

    Meteo pe oră la Kangly

    Astăzi, 21 Ianuarie, Luni

    Timp Temperatura Precipitaţii Vânt Presiune Umiditate
    00:00 +1°C° 0 mm 2 m/s 738 mmHg 93%
    01:00 +1°C° 0 mm 2 m/s 738 mmHg 92%
    02:00 +1°C° 0 mm 2 m/s 738 mmHg 92%
    03:00 +1°C° 0 mm 2 m/s 738 mmHg 91%
    04:00 0°C° 0 mm 3 m/s 738 mmHg 91%
    05:00 0°C° 0 mm 3 m/s 737 mmHg 90%
    06:00 0°C° 0 mm 3 m/s 737 mmHg 89%
    07:00 0°C° 0 mm 3 m/s 737 mmHg 86%
    08:00 0°C° 0 mm 3 m/s 736 mmHg 84%
    09:00 +1°C° 0 mm 3 m/s 736 mmHg 81%
    10:00 +2°C° 0 mm 3 m/s 735 mmHg 76%
    11:00 +3°C° 0 mm 3 m/s 735 mmHg 71%
    12:00 +4°C° 0 mm 3 m/s 734 mmHg 65%
    13:00 +4°C° 0 mm 3 m/s 734 mmHg 64%
    14:00 +5°C° 0 mm 3 m/s 733 mmHg 63%
    15:00 +5°C° 0 mm 3 m/s 733 mmHg 62%
    16:00 +5°C° 0 mm 2 m/s 733 mmHg 67%
    17:00 +4°C° 0 mm 2 m/s 733 mmHg 71%
    18:00 +4°C° 0 mm 1 m/s 733 mmHg 75%
    19:00 +4°C° 0 mm 1 m/s 733 mmHg 73%
    20:00 +4°C° 0 mm 1 m/s 733 mmHg 70%
    21:00 +4°C° 0 mm 1 m/s 733 mmHg 68%
    22:00 +4°C° 0 mm 1 m/s 733 mmHg 65%
    23:00 +5°C° 0 mm 1 m/s 732 mmHg 62%

    Mâine, 22 Ianuarie, Marţi

    Timp Temperatura Precipitaţii Vânt Presiune Umiditate
    00:00 +5°C° 0 mm 1 m/s 732 mmHg 59%
    01:00 +5°C° 0 mm 1 m/s 732 mmHg 60%
    02:00 +3°C° 0 mm 2 m/s 732 mmHg 60%
    03:00 +3°C° 0 mm 2 m/s 732 mmHg 61%
    04:00 +3°C° 0.1 mm 2 m/s 733 mmHg 66%
    05:00 +4°C° 0.1 mm 1 m/s 733 mmHg 72%
    06:00 +3°C° 0.1 mm 1 m/s 733 mmHg 77%
    07:00 +4°C° 0.4 mm 1 m/s 733 mmHg 78%
    08:00 +4°C° 0.4 mm 1 m/s 734 mmHg 79%
    09:00 +4°C° 0.4 mm 1 m/s 734 mmHg 80%
    10:00 +4°C° 1.1 mm 1 m/s 735 mmHg 83%
    11:00 +4°C° 1.1 mm 1 m/s 735 mmHg 85%
    12:00 +4°C° 1.1 mm 1 m/s 735 mmHg 88%
    13:00 +4°C° 0.7 mm 1 m/s 735 mmHg 90%
    14:00 +4°C° 0.7 mm 1 m/s 735 mmHg 93%
    15:00 +4°C° 0.7 mm 1 m/s 735 mmHg 96%
    16:00 +3°C° 0.2 mm 1 m/s 736 mmHg 96%
    17:00 +3°C° 0.2 mm 1 m/s 736 mmHg 97%
    18:00 +2°C° 0.2 mm 1 m/s 737 mmHg 97%
    19:00 +2°C° 0.1 mm 1 m/s 737 mmHg 97%
    20:00 +1°C° 0.1 mm 2 m/s 737 mmHg 97%
    21:00 -1°C° 0.1 mm 2 m/s 737 mmHg 97%
    22:00 -1°C° 0.1 mm 2 m/s 737 mmHg 97%
    23:00 -1°C° 0.1 mm 2 m/s 737 mmHg 96%

    Poimâine, 23 Ianuarie, Miercuri

    Timp Temperatura Precipitaţii Vânt Presiune Umiditate
    00:00 -1°C° 0.1 mm 2 m/s 737 mmHg 96%
    01:00 -1°C° 0 mm 3 m/s 737 mmHg 96%
    02:00 -2°C° 0 mm 3 m/s 737 mmHg 96%
    03:00 -2°C° 0 mm 3 m/s 737 mmHg 95%
    04:00 -2°C° 0 mm 3 m/s 737 mmHg 95%
    05:00 -2°C° 0 mm 3 m/s 737 mmHg 94%
    06:00 -3°C° 0 mm 4 m/s 736 mmHg 94%
    07:00 -3°C° 0 mm 4 m/s 737 mmHg 93%
    08:00 -3°C° 0 mm 4 m/s 737 mmHg 92%
    09:00 -3°C° 0 mm 4 m/s 737 mmHg 91%
    10:00 -2°C° 0 mm 4 m/s 737 mmHg 90%
    11:00 -2°C° 0 mm 5 m/s 736 mmHg 90%
    12:00 -2°C° 0 mm 5 m/s 736 mmHg 89%
    13:00 -2°C° 0 mm 5 m/s 736 mmHg 89%
    14:00 -2°C° 0 mm 5 m/s 735 mmHg 88%
    15:00 -1°C° 0 mm 5 m/s 735 mmHg 87%
    16:00 -2°C° 0 mm 5 m/s 736 mmHg 88%
    17:00 -2°C° 0 mm 5 m/s 736 mmHg 90%
    18:00 -4°C° 0 mm 5 m/s 736 mmHg 91%
    19:00 -4°C° 0 mm 5 m/s 736 mmHg 91%
    20:00 -2°C° 0 mm 5 m/s 736 mmHg 90%
    21:00 -2°C° 0 mm 5 m/s 736 mmHg 90%
    22:00 -2°C° 0 mm 5 m/s 736 mmHg 90%
    23:00 -2°C° 0 mm 5 m/s 736 mmHg 90%

    24 Ianuarie, Joi

    Timp Temperatura Precipitaţii Vânt Presiune Umiditate
    00:00 -2°C° 0 mm 5 m/s 736 mmHg 90%
    01:00 -2°C° 0 mm 4 m/s 736 mmHg 90%
    02:00 -2°C° 0 mm 4 m/s 735 mmHg 90%
    03:00 -2°C° 0 mm 4 m/s 735 mmHg 90%
    04:00 -2°C° 0 mm 4 m/s 735 mmHg 90%
    05:00 -2°C° 0 mm 4 m/s 735 mmHg 89%
    06:00 -1°C° 0 mm 3 m/s 734 mmHg 89%
    07:00 -1°C° 0 mm 3 m/s 734 mmHg 88%
    08:00 -1°C° 0 mm 3 m/s 734 mmHg 87%
    09:00 0°C° 0 mm 3 m/s 734 mmHg 86%
    10:00 +1°C° 0 mm 3 m/s 734 mmHg 84%
    11:00 +1°C° 0 mm 3 m/s 733 mmHg 82%
    12:00 +2°C° 0 mm 3 m/s 732 mmHg 80%
    13:00 +2°C° 0 mm 3 m/s 732 mmHg 80%
    14:00 +3°C° 0 mm 3 m/s 732 mmHg 80%
    15:00 +3°C° 0 mm 3 m/s 731 mmHg 81%
    16:00 +3°C° 0 mm 2 m/s 731 mmHg 82%
    17:00 +2°C° 0 mm 2 m/s 731 mmHg 84%
    18:00 +1°C° 0 mm 2 m/s 732 mmHg 86%
    19:00 +2°C° 0 mm 2 m/s 731 mmHg 84%
    20:00 +2°C° 0 mm 2 m/s 731 mmHg 82%
    21:00 +2°C° 0 mm 2 m/s 731 mmHg 80%
    22:00 +3°C° 0 mm 1 m/s 731 mmHg 80%
    23:00 +3°C° 0 mm 1 m/s 731 mmHg 80%

    25 Ianuarie, Vineri

    Timp Temperatura Precipitaţii Vânt Presiune Umiditate
    00:00 +3°C° 0 mm 1 m/s 731 mmHg 80%
    01:00 +3°C° 0 mm 1 m/s 731 mmHg 78%
    02:00 +3°C° 0 mm 1 m/s 730 mmHg 76%
    03:00 +2°C° 0 mm 0 m/s 730 mmHg 74%
    04:00 +3°C° 0 mm 1 m/s 730 mmHg 73%
    05:00 +3°C° 0 mm 1 m/s 730 mmHg 72%
    06:00 +3°C° 0 mm 1 m/s 730 mmHg 71%
    07:00 +4°C° 0 mm 1 m/s 730 mmHg 71%
    08:00 +4°C° 0 mm 1 m/s 730 mmHg 70%
    09:00 +4°C° 0 mm 1 m/s 731 mmHg 70%
    10:00 +5°C° 0 mm 1 m/s 731 mmHg 67%
    11:00 +7°C° 0 mm 1 m/s 731 mmHg 64%
    12:00 +7°C° 0 mm 0 m/s 731 mmHg 61%
    13:00 +6°C° 0 mm 0 m/s 731 mmHg 64%
    14:00 +6°C° 0 mm 0 m/s 731 mmHg 66%
    15:00 +6°C° 0 mm 0 m/s 731 mmHg 69%
    16:00 +5°C° 0 mm 0 m/s 731 mmHg 71%
    17:00 +4°C° 0 mm 0 m/s 731 mmHg 74%
    18:00 +3°C° 0 mm 0 m/s 731 mmHg 76%
    19:00 +3°C° 0 mm 0 m/s 731 mmHg 76%
    20:00 +3°C° 0 mm 0 m/s 732 mmHg 76%
    21:00 +3°C° 0 mm 0 m/s 732 mmHg 76%
    22:00 +3°C° 0 mm 0 m/s 732 mmHg 76%
    23:00 +3°C° 0 mm 0 m/s 732 mmHg 75%

    26 Ianuarie, Sâmbătă

    Timp Temperatura Precipitaţii Vânt Presiune Umiditate
    00:00 +3°C° 0 mm 0 m/s 732 mmHg 75%
    01:00 +3°C° 0 mm 0 m/s 732 mmHg 74%
    02:00 +3°C° 0 mm 0 m/s 732 mmHg 72%
    03:00 +3°C° 0 mm 0 m/s 731 mmHg 71%
    04:00 +3°C° 0 mm 0 m/s 731 mmHg 70%
    05:00 +3°C° 0 mm 0 m/s 731 mmHg 69%
    06:00 +3°C° 0 mm 0 m/s 731 mmHg 68%
    07:00 +4°C° 0 mm 1 m/s 730 mmHg 66%
    08:00 +5°C° 0 mm 1 m/s 730 mmHg 65%
    09:00 +5°C° 0 mm 1 m/s 730 mmHg 63%
    10:00 +6°C° 0 mm 1 m/s 730 mmHg 62%
    11:00 +7°C° 0 mm 1 m/s 729 mmHg 60%
    12:00 +8°C° 0 mm 1 m/s 729 mmHg 59%
    13:00 +8°C° 0 mm 1 m/s 729 mmHg 62%
    14:00 +8°C° 0 mm 1 m/s 728 mmHg 65%
    15:00 +6°C° 0 mm 2 m/s 728 mmHg 68%
    16:00 +6°C° 0 mm 2 m/s 728 mmHg 70%
    17:00 +5°C° 0 mm 2 m/s 728 mmHg 72%
    18:00 +4°C° 0 mm 2 m/s 729 mmHg 75%
    19:00 +4°C° 0 mm 2 m/s 729 mmHg 75%
    20:00 +4°C° 0 mm 2 m/s 729 mmHg 76%
    21:00 +4°C° 0 mm 2 m/s 729 mmHg 77%
    22:00 +5°C° 0 mm 1 m/s 729 mmHg 76%
    23:00 +5°C° 0 mm 1 m/s 729 mmHg 75%
    Arată mai mult